Change the Weather History Date:

Sunday, April 29, 2012

  Actual Average Record
Temperature  
Mean Temperature 76 °F 72 °F  
Max Temperature 87 °F 83 °F 92 °F (1955)
Min Temperature 64 °F 62 °F 44 °F (1916)
Degree Days  
Heating Degree Days 0 0  
Month to date heating degree days 9 38  
Since 1 July heating degree days 1038 1418  
Cooling Degree Days 11 8  
Month to date cooling degree days 188 151  
Year to date cooling degree days 427 246  
Growing Degree Days 26 (Base 50)    
Moisture  
Dew Point 67 °F    
Average Humidity 71    
Maximum Humidity 93    
Minimum Humidity 48    
Precipitation  
Precipitation 0.00 in 0.14 in 4.36 in (1960)
Month to date precipitation 4.79 3.78  
Year to date precipitation 22.33 17.69  
Snow  
Snow 0.00 in 0.00 in 0.00 in ()
Month to date snowfall 0.0 0.0  
Since 1 July snowfall 0.0 T  
Snow Depth 0.00 in    
Sea Level Pressure  
Sea Level Pressure 30.05 in    
Wind  
Wind Speed 6 mph (SSE)    
Max Wind Speed 17 mph    
Max Gust Speed 23 mph    
Visibility 10 miles    
Events      
T = Trace of Precipitation, MM = Missing Value Source: NWS Daily Summary

Daily Weather History Graph

Daily Weather History Graph

Search for Another Location

Airport or City:

Trip Planner

Search our weather history database for the weather conditions in past years. The results will help you decide how hot, cold, wet, or windy it might be!

Date:

Astronomy

Apr. 29, 2012 Rise Set
Actual Time 6:26 AM CDT 7:44 PM CDT
Civil Twilight 6:00 AM CDT 8:10 PM CDT
Nautical Twilight 5:30 AM CDT 8:40 PM CDT
Astronomical Twilight 4:59 AM CDT 9:11 PM CDT
Moon 1:07 PM CDT (4/29) 1:45 AM CDT (4/29)
Length of Visible Light 14h 09m
Length of Day
13h 18m
First Quarter, 53% of the Moon is Illuminated
Apr 29
First Quarter
May 5
Full
May 12
Last Quarter
May 20
New
May 28
First Quarter

Hourly Weather History & Observations

Time (CDT) Temp. Heat Index Dew Point Humidity Pressure Visibility Wind Dir Wind Speed Gust Speed Precip Events Conditions
12:53 AM 68.0 °F - 64.0 °F 87% 30.01 in 10.0 mi Variable 3.5 mph - N/A   Clear
1:53 AM 66.9 °F - 64.0 °F 90% 30.01 in 10.0 mi Calm Calm - N/A   Partly Cloudy
2:53 AM 64.9 °F - 63.0 °F 93% 30.01 in 9.0 mi Calm Calm - N/A   Clear
3:53 AM 66.0 °F - 64.0 °F 93% 30.01 in 10.0 mi ESE 3.5 mph - N/A   Clear
4:53 AM 66.0 °F - 64.0 °F 93% 30.01 in 8.0 mi Variable 3.5 mph - 0.01 in   Clear
5:53 AM 64.0 °F - 63.0 °F 96% 30.02 in 5.0 mi Calm Calm - N/A   Clear
6:53 AM 64.9 °F - 63.0 °F 93% 30.04 in 5.0 mi Calm Calm - N/A   Clear
7:53 AM 68.0 °F - 64.9 °F 90% 30.05 in 8.0 mi East 3.5 mph - N/A   Clear
8:25 AM 69.8 °F - 66.2 °F 88% 30.06 in 10.0 mi ESE 3.5 mph - N/A   Scattered Clouds
8:53 AM 73.0 °F - 69.1 °F 87% 30.06 in 10.0 mi Variable 3.5 mph - N/A   Scattered Clouds
9:02 AM 73.4 °F - 69.8 °F 88% 30.06 in 10.0 mi Variable 3.5 mph - N/A   Mostly Cloudy
9:24 AM 75.2 °F - 69.8 °F 83% 30.06 in 10.0 mi SE 5.8 mph - N/A   Mostly Cloudy
9:45 AM 75.2 °F - 69.8 °F 83% 30.06 in 10.0 mi Variable 3.5 mph - N/A   Mostly Cloudy
9:53 AM 75.9 °F - 69.1 °F 79% 30.07 in 10.0 mi South 3.5 mph - N/A   Mostly Cloudy
10:31 AM 80.6 °F 83.9 °F 69.8 °F 70% 30.08 in 10.0 mi Variable 4.6 mph - N/A   Mostly Cloudy
10:53 AM 79.0 °F - 68.0 °F 69% 30.07 in 10.0 mi Variable 5.8 mph - N/A   Mostly Cloudy
11:02 AM 80.6 °F 83.2 °F 68.0 °F 65% 30.08 in 10.0 mi SSE 5.8 mph - N/A   Mostly Cloudy
11:48 AM 82.4 °F 85.4 °F 68.0 °F 62% 30.08 in 10.0 mi South 6.9 mph - N/A   Scattered Clouds
11:53 AM 82.0 °F 84.5 °F 66.9 °F 60% 30.07 in 10.0 mi South 9.2 mph - N/A   Mostly Cloudy
12:53 PM 84.0 °F 86.5 °F 66.9 °F 56% 30.06 in 10.0 mi South 11.5 mph 17.3 mph N/A   Scattered Clouds
1:53 PM 87.1 °F 89.2 °F 66.0 °F 49% 30.05 in 10.0 mi South 15.0 mph 21.9 mph N/A   Scattered Clouds
2:53 PM 84.9 °F 86.6 °F 64.9 °F 51% 30.04 in 10.0 mi South 12.7 mph 19.6 mph N/A   Partly Cloudy
3:53 PM 86.0 °F 87.6 °F 64.9 °F 49% 30.02 in 10.0 mi SSW 15.0 mph 19.6 mph N/A   Clear
4:53 PM 84.9 °F 86.6 °F 64.9 °F 51% 30.02 in 10.0 mi SSW 13.8 mph 20.7 mph N/A   Clear
5:53 PM 82.9 °F 85.0 °F 66.0 °F 56% 30.02 in 10.0 mi South 11.5 mph - N/A   Clear
6:53 PM 81.0 °F 83.3 °F 66.9 °F 62% 30.03 in 10.0 mi South 9.2 mph - N/A   Clear
7:53 PM 78.1 °F - 69.1 °F 74% 30.04 in 10.0 mi South 10.4 mph - N/A   Clear
8:53 PM 75.9 °F - 70.0 °F 82% 30.06 in 10.0 mi South 6.9 mph - N/A   Clear
9:53 PM 75.0 °F - 71.1 °F 87% 30.07 in 10.0 mi SSE 4.6 mph - N/A   Clear
10:53 PM 73.9 °F - 71.1 °F 91% 30.07 in 10.0 mi Calm Calm - N/A   Clear
11:53 PM 73.0 °F - 71.1 °F 93% 30.07 in 9.0 mi SSE 3.5 mph - N/A   Clear